Weather History for Rochester, MN

Change the Weather History Date:

Thursday, August 15, 2013

  Actual Average Record
Temperature  
Mean Temperature 63 °F 70 °F  
Max Temperature 75 °F 79 °F 100 °F (1936)
Min Temperature 51 °F 60 °F 39 °F (1933)
Degree Days  
Heating Degree Days 2 1  
Month to date heating degree days 11 12  
Since 1 June heating degree days 94 75  
Since 1 July heating degree days 34 23  
Cooling Degree Days 0 5  
Month to date cooling degree days 20 85  
Year to date cooling degree days 405 456  
Since 1 June cooling degree days 375 422  
Growing Degree Days 13 (Base 50)    
Moisture  
Dew Point 51 °F    
Average Humidity 66    
Maximum Humidity 89    
Minimum Humidity 43    
Precipitation  
Precipitation 0.00 in 0.16 in 1.95 in (1893)
Month to date precipitation 1.29 2.19  
Year to date precipitation 34.19 21.86  
Snow  
Snow 0.00 in 0.00 in 0.00 in (2012)
Month to date snowfall 0.0 0.0  
Since 1 June snowfall 0.0 0.0  
Since 1 July snowfall 0.0 0.0  
Snow Depth 0.00 in    
Sea Level Pressure  
Sea Level Pressure 30.15 in    
Wind  
Wind Speed 6 mph (SW)    
Max Wind Speed 10 mph    
Max Gust Speed 14 mph    
Visibility 10 miles    
Events      
T = Trace of Precipitation, MM = Missing Value Source: NWS Daily Summary

Daily Weather History Graph

Daily Weather History Graph

Search for Another Location

Airport:

Trip Planner

Search our weather history database for the weather conditions in past years. The results will help you decide how hot, cold, wet, or windy it might be!

Date:

Astronomy

Aug. 15, 2013 Rise Set
Actual Time 6:14 AM CDT 8:13 PM CDT
Civil Twilight 5:43 AM CDT 8:44 PM CDT
Nautical Twilight 5:04 AM CDT 9:22 PM CDT
Astronomical Twilight 4:22 AM CDT 10:04 PM CDT
Moon 3:35 PM CDT (8/15) 12:21 AM CDT (8/15)
Length of Visible Light 15h 01m
Length of Day
13h 59m
Waxing Gibbous, 64% of the Moon is Illuminated
Aug 15
Waxing Gibbous
Aug 20
Full
Aug 28
Last Quarter
Sep 5
New
Sep 12
First Quarter

Hourly Weather History & Observations

Time (CDT) Temp. Dew Point Humidity Pressure Visibility Wind Dir Wind Speed Gust Speed Precip Events Conditions
12:54 AM 55.9 °F 50.0 °F 80% 30.15 in 10.0 mi Calm Calm - N/A   Clear
1:54 AM 52.0 °F 48.9 °F 89% 30.16 in 10.0 mi SSW 4.6 mph - N/A   Clear
2:54 AM 51.1 °F 48.9 °F 92% 30.16 in 10.0 mi South 4.6 mph - N/A   Clear
3:54 AM 52.0 °F 48.0 °F 86% 30.15 in 10.0 mi South 5.8 mph - N/A   Clear
4:54 AM 51.1 °F 46.9 °F 86% 30.15 in 10.0 mi SSW 5.8 mph - N/A   Clear
5:54 AM 52.0 °F 46.9 °F 83% 30.16 in 10.0 mi SW 8.1 mph - N/A   Clear
6:54 AM 52.0 °F 46.9 °F 83% 30.17 in 10.0 mi SW 5.8 mph - N/A   Clear
7:54 AM 57.9 °F 52.0 °F 81% 30.18 in 10.0 mi SSW 4.6 mph - N/A   Clear
8:54 AM 64.9 °F 54.0 °F 68% 30.17 in 10.0 mi SSW 4.6 mph - N/A   Clear
9:54 AM 69.1 °F 53.1 °F 57% 30.18 in 10.0 mi West 5.8 mph - N/A   Clear
10:54 AM 71.1 °F 51.1 °F 49% 30.17 in 10.0 mi Variable 3.5 mph - N/A   Clear
11:54 AM 71.1 °F 50.0 °F 47% 30.16 in 10.0 mi Variable 3.5 mph - N/A   Partly Cloudy
12:54 PM 70.0 °F 51.1 °F 51% 30.14 in 10.0 mi SW 10.4 mph - N/A   Mostly Cloudy
1:54 PM 73.9 °F 52.0 °F 46% 30.14 in 10.0 mi SSW 5.8 mph - N/A   Mostly Cloudy
2:54 PM 75.0 °F 52.0 °F 44% 30.13 in 10.0 mi South 5.8 mph - N/A   Mostly Cloudy
3:54 PM 73.0 °F 51.1 °F 46% 30.12 in 10.0 mi SSW 6.9 mph - N/A   Scattered Clouds
4:54 PM 73.9 °F 53.1 °F 48% 30.12 in 10.0 mi Calm Calm - N/A   Scattered Clouds
5:54 PM 73.9 °F 51.1 °F 45% 30.12 in 10.0 mi SW 8.1 mph - N/A   Mostly Cloudy
6:54 PM 71.1 °F 52.0 °F 51% 30.12 in 10.0 mi SW 6.9 mph - N/A   Clear
7:54 PM 66.9 °F 53.1 °F 61% 30.12 in 10.0 mi SW 5.8 mph - N/A   Clear
8:54 PM 66.0 °F 51.1 °F 59% 30.13 in 10.0 mi SSW 3.5 mph - N/A   Clear
9:54 PM 62.1 °F 52.0 °F 70% 30.15 in 10.0 mi SW 5.8 mph - N/A   Clear
10:54 PM 60.1 °F 52.0 °F 75% 30.17 in 10.0 mi SW 4.6 mph - N/A   Clear